[[{"header":{"parameterUnit":"m.s-1","parameterCategory":2,"la1":30.2991,"la2":30.254,"lo1":-89.0895,"lo2":-89.0444,"dy":0.0017,"dx":0.0017,"nx":28,"ny":28,"refTime":"2024-08-12T21:00:00:Z","depth":"0","parameterNumber":2,"parameterNumberName":"U-component_of_CURRENTS"},"data":[0,0,0,0,0,0,0,0,0,0,0,0,0,0,0,0,0,0,0,0,0,0,0,0,0,0,0,0,0,0,0,0,0,0,0,0,0,0,0,0,0,0,0,0,0,0,0,0,0,0,0,0,0,0,0,0,0,0,0.4846,0.4847,0,0.4867,0.4866,0.4866,0.4876,0.4877,0.4877,0.4877,0.4854,0.4853,0.4852,0,0,0,0,0,0,0,0,0,0,0,0,0,0.4884,0.4883,0.4846,0.4847,0.4848,0.4867,0.4866,0.4866,0.4876,0.4877,0.4877,0.4878,0.4854,0.4853,0.4852,0,0,0,0,0,0,0,0,0,0,0,0,0,0.4878,0.4882,0.4846,0.4858,0.486,0.4867,0.4866,0.4866,0.4876,0.4877,0.4877,0.4878,0.4855,0.4853,0.4852,0.483,0,0,0.4847,0.4846,0,0,0,0,0,0,0,0,0.4878,0.4876,0.4856,0.4857,0.4859,0.4873,0.4872,0.4854,0.4876,0.4865,0.4878,0.4878,0.4859,0.4857,0.4854,0.4829,0.4828,0.4847,0.4846,0.4845,0.4845,0,0,0,0,0,0,0,0.4879,0.4876,0.485,0.4856,0.4859,0.4886,0.4885,0.4868,0.4854,0.4866,0.4868,0.4877,0.4859,0.4855,0.4853,0.4828,0.4847,0.4846,0.4845,0.4844,0.4872,0.4874,0,0,0,0,0,0,0.488,0.4875,0.4849,0.4851,0.4875,0.4885,0.4883,0.4865,0.4855,0.4856,0.4877,0.4878,0.4858,0.4855,0.4852,0.4854,0.4845,0.4844,0.4843,0.4871,0.4873,0.4874,0,0,0,0,0,0,0.4881,0.4877,0.4849,0.4869,0.4868,0.4884,0.4863,0.4865,0.4864,0.4865,0.4864,0.4874,0.4858,0.4855,0.4858,0.4852,0.4843,0.4842,0.4869,0.4871,0.4873,0.484,0,0,0,0,0,0,0.4881,0.4876,0.4863,0.4868,0.4867,0.4857,0.4863,0.4865,0.487,0.4872,0.4862,0.4861,0.4858,0.486,0.4856,0.485,0.4841,0.4867,0.487,0.4873,0.4839,0.4841,0.4843,0,0,0,0,0,0.4882,0.4853,0.4861,0.4859,0.4847,0.4857,0.4859,0.487,0.487,0.487,0.4876,0.4861,0.4878,0.4859,0.4855,0.4848,0.4865,0.4869,0.4872,0.4838,0.4841,0.4843,0,0,0,0,0,0,0.4854,0.4852,0.4861,0.483,0.485,0.4861,0.4857,0.4867,0.4869,0.4866,0.4866,0.4866,0.4882,0.4874,0.4854,0.4875,0.4875,0.4878,0.4851,0.4853,0.4855,0.4898,0.484,0,0,0,0,0,0.4845,0.4825,0.4841,0.482,0.4826,0.4842,0.4846,0.4856,0.4863,0.4864,0.4864,0.4873,0.4893,0.4878,0.4901,0.488,0.4937,0.4884,0.4886,0.4887,0.4925,0.5009,0.5022,0.4887,0.4887,0.4886,0,0,0.483,0.4827,0.4816,0.4815,0.4824,0.4832,0.4844,0.4846,0.4855,0.4859,0.4861,0.4884,0.49,0.4906,0.4909,0.4889,0.4954,0.4892,0.4892,0.4931,0.5014,0.5028,0.5039,0.4889,0.4889,0.4888,0,0,0.4798,0.4786,0.4768,0.4783,0.4802,0.4816,0.4819,0.4834,0.4841,0.4852,0.4876,0.4912,0.4898,0.4931,0.4939,0.4966,0.4982,0.4951,0.4959,0.5038,0.505,0.5061,0.5136,0.5155,0.4924,0.4924,0.4924,0,0.4785,0.4761,0.4768,0.4767,0.478,0.4809,0.481,0.4822,0.4841,0.4855,0.4853,0.4918,0.4927,0.4964,0.4981,0.497,0.5012,0.4934,0.5039,0.5051,0.5063,0.5139,0.5159,0.4922,0.4923,0.4923,0.4923,0,0.4751,0.4743,0.4733,0.4742,0.4757,0.476,0.479,0.4804,0.4818,0.4844,0.4896,0.4932,0.4975,0.4975,0.498,0.5058,0.5062,0.5048,0.5026,0.5075,0.5151,0.5173,0.4921,0.4921,0.4921,0.4922,0,0,0.4696,0.4708,0.4707,0.4717,0.4745,0.4753,0.4771,0.4805,0.4829,0.4862,0.4907,0.4963,0.5,0.5021,0.5034,0.5095,0.5209,0.5096,0.51,0.516,0.5383,0.5213,0.5221,0.5194,0.5198,0.5202,0.5396,0,0.4674,0.4667,0.4681,0.4689,0.4693,0.4732,0.4748,0.4785,0.4826,0.4876,0.4938,0.4997,0.5004,0.5033,0.5097,0.5201,0.5269,0.5159,0.534,0.5347,0.5179,0.5241,0.4938,0.507,0.5418,0.5422,0.5424,0,0.464,0.4643,0.464,0.467,0.4674,0.4685,0.4734,0.4755,0.4835,0.4869,0.4945,0.501,0.5127,0.5121,0.5323,0.5244,0.5328,0.5398,0.5405,0.5283,0.5218,0.5084,0.5097,0.4944,0.5459,0.5456,0.5454,0,0.4603,0.4616,0.4613,0.4623,0.4657,0.4665,0.4687,0.4751,0.4782,0.4885,0.4938,0.5066,0.5139,0.5284,0.541,0.5388,0.562,0.5604,0.5537,0.5526,0.5328,0.529,0.5206,0.5766,0.5766,0.5765,0.5765,0,0.4576,0.4574,0.4593,0.4594,0.4595,0.4631,0.4651,0.4695,0.4774,0.4818,0.4935,0.5005,0.5185,0.5318,0.5444,0.5542,0.565,0.5576,0.5571,0.5303,0.5263,0.5168,0.5125,0.5773,0.5771,0.577,0.5768,0,0.4531,0.4549,0.4542,0.4566,0.4575,0.4571,0.4618,0.4636,0.4724,0.4795,0.4839,0.4993,0.5158,0.5319,0.5546,0.5552,0.5523,0.5694,0.5355,0.5305,0.5059,0.5026,0.4909,0.4786,0.5678,0.5675,0.5673,0,0.4505,0.4496,0.4506,0.45,0.4506,0.4514,0.4516,0.4593,0.4619,0.4777,0.4803,0.4984,0.5053,0.5292,0.5359,0.5519,0.5423,0.5307,0.521,0.5018,0.4983,0.487,0.4769,0.4955,0.4947,0.494,0.4935,0,0.4454,0.4454,0.4448,0.4432,0.4427,0.4424,0.444,0.4457,0.4548,0.4608,0.4683,0.4762,0.4929,0.4894,0.5046,0.5128,0.4998,0.5172,0.5069,0.4491,0.4273,0.4156,0.4871,0.4875,0.4881,0.4885,0.4888,0.4891,0.4405,0.4384,0.4375,0.4346,0.4335,0.4312,0.4255,0.4284,0.4299,0.4285,0.4471,0.4428,0.4456,0.461,0.4657,0.4497,0.4629,0.4372,0.4384,0.4318,0.4056,0.4626,0.4545,0.4548,0.4552,0.4555,0.4557,0,0.4326,0.4316,0.4292,0.4229,0.4157,0.4205,0.4169,0.4063,0.3988,0.4006,0.4,0.391,0.3843,0.39,0.3851,0.3724,0.3628,0.3633,0.3413,0.3387,0.3969,0.3786,0.3414,0.3414,0.3414,0.3414,0.3415,0.3415,0.4292,0.4236,0.4211,0.4063,0.4014,0.3842,0.3789,0.3649,0.3588,0.3366,0.3229,0.3263,0.3386,0.3348,0.3205,0.3145,0.2982,0.2792,0.292,0.3311,0.3381,0.3447,0.3263,0.2787,0.2786,0.2153,0.2148,0.2144]},{"header":{"parameterUnit":"m.s-1","parameterCategory":2,"la1":30.2991,"la2":30.254,"lo1":-89.0895,"lo2":-89.0444,"dy":0.0017,"dx":0.0017,"nx":28,"ny":28,"refTime":"2024-08-12T21:00:00:Z","depth":"0","parameterNumber":3,"parameterNumberName":"V-component_of_CURRENTS"},"data":[0,0,0,0,0,0,0,0,0,0,0,0,0,0,0,0,0,0,0,0,0,0,0,0,0,0,0,0,0,0,0,0,0,0,0,0,0,0,0,0,0,0,0,0,0,0,0,0,0,0,0,0,0,0,0,0,0,0,0.0233,0.0233,0,0.0278,0.0278,0.0279,0.0272,0.0271,0.0271,0.027,0.0218,0.0217,0.0216,0,0,0,0,0,0,0,0,0,0,0,0,0,0.0071,0.0074,0.0232,0.0233,0.0234,0.0278,0.0278,0.0279,0.0272,0.0271,0.0271,0.027,0.0218,0.0217,0.0216,0,0,0,0,0,0,0,0,0,0,0,0,0,0.0129,0.0075,0.0232,0.0237,0.0238,0.0278,0.0278,0.0279,0.0272,0.0271,0.0271,0.027,0.0218,0.0217,0.0216,0.0226,0,0,0.0212,0.0211,0,0,0,0,0,0,0,0,0.0126,0.0135,0.0236,0.0237,0.0238,0.027,0.0202,0.0257,0.0273,0.0258,0.027,0.0269,0.0228,0.0226,0.0235,0.0224,0.0221,0.0212,0.0211,0.0211,0.021,0,0,0,0,0,0,0,0.0122,0.0133,0.0249,0.0237,0.0238,0.0213,0.0221,0.0212,0.0244,0.0259,0.0259,0.0267,0.0227,0.0237,0.0234,0.0221,0.0212,0.0211,0.021,0.0209,0.0273,0.0276,0,0,0,0,0,0,0.0126,0.013,0.0247,0.025,0.0181,0.0218,0.0226,0.0259,0.0246,0.0245,0.0268,0.0267,0.0239,0.0235,0.0232,0.0283,0.0211,0.0209,0.0209,0.0271,0.0274,0.0276,0,0,0,0,0,0,0.0122,0.0137,0.0245,0.019,0.0203,0.0222,0.0259,0.0261,0.0268,0.0255,0.025,0.0273,0.0238,0.0233,0.0251,0.0279,0.0209,0.0208,0.0268,0.0272,0.0275,0.0359,0,0,0,0,0,0,0.0118,0.0136,0.0159,0.0192,0.0206,0.0278,0.026,0.0262,0.0275,0.0274,0.0257,0.0252,0.0237,0.0253,0.0249,0.0276,0.0207,0.0265,0.027,0.0274,0.0354,0.0366,0.0376,0,0,0,0,0,0.0113,0.0155,0.016,0.0174,0.0239,0.0279,0.0285,0.0292,0.0276,0.0292,0.0293,0.0252,0.0279,0.0254,0.0249,0.0276,0.0263,0.0268,0.0274,0.0349,0.0363,0.0376,0,0,0,0,0,0,0.0097,0.016,0.0165,0.0225,0.0251,0.0279,0.0299,0.0294,0.0308,0.0306,0.028,0.0277,0.0306,0.0284,0.0257,0.0312,0.0265,0.027,0.0324,0.0338,0.0349,0.0372,0.0206,0,0,0,0,0,0.0106,0.0154,0.0196,0.0241,0.026,0.0276,0.0291,0.0298,0.0315,0.0319,0.031,0.0311,0.0327,0.0325,0.0334,0.0355,0.0332,0.0373,0.0384,0.0393,0.0413,0.0411,0.0423,0.0295,0.0294,0.0294,0,0,0.011,0.0151,0.0177,0.024,0.0263,0.0311,0.0283,0.0319,0.0356,0.031,0.0354,0.0348,0.0345,0.0383,0.0393,0.0364,0.0418,0.04,0.0408,0.0423,0.0418,0.043,0.0441,0.0298,0.0298,0.0297,0,0,0.0147,0.0184,0.0236,0.0269,0.0314,0.0334,0.0344,0.0377,0.039,0.043,0.0418,0.0437,0.0444,0.0461,0.0467,0.0544,0.0481,0.0536,0.0602,0.06,0.061,0.0619,0.0598,0.0605,0.0535,0.0536,0.0536,0,0.0142,0.023,0.0252,0.031,0.035,0.0348,0.0409,0.0429,0.046,0.0485,0.0456,0.0511,0.0491,0.0557,0.0584,0.0568,0.0546,0.0546,0.0613,0.0621,0.0628,0.0605,0.0611,0.054,0.054,0.0539,0.0539,0,0.0225,0.029,0.0325,0.0407,0.0444,0.0498,0.0534,0.0566,0.0572,0.059,0.0648,0.0639,0.0672,0.0666,0.0643,0.0698,0.0659,0.0628,0.0573,0.0646,0.0617,0.0622,0.0547,0.0545,0.0544,0.0543,0,0,0.0235,0.0358,0.0372,0.0432,0.0506,0.0552,0.0618,0.0689,0.0742,0.0754,0.0828,0.0842,0.0826,0.0834,0.0808,0.0799,0.0816,0.0735,0.0732,0.0705,0.0796,0.0744,0.0743,0.0785,0.0787,0.0788,0.0751,0,0.0294,0.0424,0.0469,0.0589,0.0664,0.0695,0.0764,0.0818,0.0847,0.0913,0.0912,0.0965,0.0893,0.0912,0.0897,0.0854,0.0833,0.0828,0.0739,0.0737,0.0674,0.0749,0.0699,0.0661,0.0755,0.0756,0.0756,0,0.0375,0.0455,0.0583,0.0711,0.0746,0.0807,0.0924,0.0982,0.1056,0.1079,0.1118,0.1113,0.114,0.1054,0.1006,0.1002,0.0909,0.085,0.0847,0.0776,0.0694,0.0607,0.0664,0.0507,0.0762,0.0761,0.0761,0,0.0405,0.0543,0.0651,0.0695,0.0826,0.0887,0.095,0.1033,0.1107,0.1186,0.1245,0.1256,0.1277,0.1191,0.1073,0.1038,0.0999,0.0933,0.0797,0.0791,0.0723,0.0709,0.0612,0.0883,0.0883,0.0883,0.0883,0,0.0477,0.0569,0.0674,0.074,0.087,0.0934,0.1064,0.1124,0.1227,0.1345,0.1329,0.1421,0.1307,0.1274,0.1137,0.0999,0.1047,0.0832,0.0792,0.075,0.074,0.0577,0.0491,0.0882,0.0882,0.0882,0.0883,0,0.0522,0.0588,0.0722,0.0852,0.0896,0.099,0.1141,0.1237,0.1311,0.1467,0.1506,0.1549,0.1513,0.138,0.1247,0.1083,0.0854,0.0877,0.0831,0.0786,0.0496,0.0417,0.0286,0.0244,0.0727,0.0726,0.0725,0,0.0572,0.0641,0.079,0.0864,0.0931,0.1062,0.1164,0.1274,0.1385,0.1563,0.1657,0.1668,0.1715,0.1499,0.122,0.0981,0.0828,0.0741,0.0664,0.0497,0.0379,0.0322,0.0293,0.0599,0.0597,0.0596,0.0595,0,0.066,0.0699,0.0803,0.0938,0.1054,0.1192,0.1342,0.1447,0.1602,0.1743,0.192,0.1972,0.1766,0.1523,0.1162,0.0971,0.0623,0.0697,0.0544,0.03,0.0214,0.0148,0.0593,0.058,0.0581,0.0582,0.0583,0.0584,0.0722,0.0793,0.0902,0.1037,0.1164,0.132,0.1447,0.1613,0.1816,0.2027,0.2078,0.2156,0.1774,0.1291,0.1026,0.0468,0.051,0.0279,0.0205,0.017,0.0109,0.0519,0.0447,0.0447,0.0448,0.0448,0.0449,0,0.08,0.0869,0.0992,0.1154,0.1292,0.1348,0.1571,0.1697,0.1942,0.2106,0.2245,0.2073,0.1597,0.1113,0.0379,0.0033,-0.0069,-0.0149,-0.0245,-0.0242,0.0132,0.0105,-0.0068,-0.0068,-0.0068,-0.0068,-0.0067,-0.0067,0.0845,0.096,0.1013,0.1233,0.1346,0.1532,0.1665,0.1844,0.1992,0.2148,0.2169,0.2171,0.1793,0.0567,-0.026,-0.0432,-0.0583,-0.0668,-0.0703,-0.0481,-0.0447,-0.0414,-0.0459,-0.0747,-0.0748,-0.1044,-0.1048,-0.1051]}],[{"header":{"parameterUnit":"m.s-1","parameterCategory":2,"la1":30.2991,"la2":30.254,"lo1":-89.0895,"lo2":-89.0444,"dy":0.0017,"dx":0.0017,"nx":28,"ny":28,"refTime":"2024-08-12T21:00:00:Z","depth":"2","parameterNumber":2,"parameterNumberName":"U-component_of_CURRENTS"},"data":[0,0,0,0,0,0,0,0,0,0,0,0,0,0,0,0,0,0,0,0,0,0,0,0,0,0,0,0,0,0,0,0,0,0,0,0,0,0,0,0,0,0,0,0,0,0,0,0,0,0,0,0,0,0,0,0,0,0,0.3886,0.3887,0,0.3961,0.3962,0.3962,0.3946,0.3945,0.3944,0.3943,0.3937,0.3938,0.3939,0,0,0,0,0,0,0,0,0,0,0,0,0,0.3651,0.3656,0.3886,0.3887,0.3888,0.3961,0.3962,0.3962,0.3946,0.3945,0.3943,0.3942,0.3937,0.3938,0.3939,0,0,0,0,0,0,0,0,0,0,0,0,0,0.3741,0.3658,0.3886,0.3891,0.3892,0.3961,0.3962,0.3963,0.3947,0.3945,0.3943,0.3941,0.3937,0.3938,0.3939,0.3984,0,0,0.3944,0.3944,0,0,0,0,0,0,0,0,0.3736,0.3749,0.3889,0.389,0.3892,0.3944,0.3877,0.3967,0.3947,0.3923,0.3943,0.3941,0.3935,0.3937,0.3952,0.3984,0.3983,0.3944,0.3945,0.3945,0.3946,0,0,0,0,0,0,0,0.373,0.3745,0.3913,0.389,0.3892,0.3863,0.3874,0.3894,0.3935,0.3925,0.3925,0.3938,0.3935,0.3951,0.3952,0.3983,0.3944,0.3945,0.3946,0.3947,0.4036,0.4038,0,0,0,0,0,0,0.3732,0.3741,0.3911,0.3916,0.381,0.3869,0.3881,0.3927,0.3936,0.3938,0.3939,0.3937,0.395,0.395,0.3952,0.3998,0.3945,0.3947,0.3948,0.4035,0.4037,0.4038,0,0,0,0,0,0,0.3728,0.3748,0.3908,0.3828,0.3847,0.3876,0.3927,0.393,0.3946,0.3948,0.3947,0.3952,0.3948,0.395,0.3975,0.3998,0.3947,0.3949,0.4033,0.4035,0.4037,0.4096,0,0,0,0,0,0,0.3721,0.3747,0.3788,0.3831,0.3852,0.3937,0.3929,0.3933,0.3958,0.3955,0.3959,0.3957,0.3947,0.3973,0.3977,0.3999,0.395,0.4031,0.4034,0.4037,0.4092,0.41,0.4106,0,0,0,0,0,0.3713,0.3756,0.379,0.3811,0.3907,0.3938,0.3945,0.3956,0.396,0.3964,0.3979,0.3956,0.3993,0.3976,0.398,0.4003,0.403,0.4033,0.4037,0.4089,0.4098,0.4106,0,0,0,0,0,0,0.37,0.3761,0.3798,0.3869,0.3903,0.3935,0.3949,0.3966,0.3986,0.3983,0.3983,0.3983,0.4019,0.4006,0.3987,0.4037,0.4006,0.401,0.4044,0.4053,0.406,0.4044,0.3951,0,0,0,0,0,0.3718,0.3751,0.3814,0.3872,0.389,0.3928,0.3947,0.3957,0.3979,0.3986,0.3988,0.4002,0.404,0.4039,0.406,0.4086,0.4118,0.4102,0.4109,0.4115,0.4106,0.421,0.4226,0.4049,0.4049,0.4049,0,0,0.3729,0.377,0.3792,0.3868,0.3897,0.3923,0.3933,0.3959,0.398,0.3984,0.4002,0.4034,0.4057,0.4092,0.4104,0.4078,0.4185,0.4119,0.4124,0.4111,0.4215,0.4233,0.4248,0.4052,0.4051,0.4051,0,0,0.3733,0.3808,0.382,0.385,0.3896,0.3921,0.3931,0.3966,0.3979,0.4019,0.4037,0.408,0.4108,0.4134,0.4155,0.4215,0.4233,0.4219,0.4228,0.4331,0.4347,0.4361,0.4435,0.4455,0.4207,0.4207,0.4207,0,0.3745,0.3793,0.3829,0.3849,0.3875,0.392,0.3939,0.397,0.4005,0.4027,0.4021,0.4118,0.4132,0.4205,0.4222,0.4231,0.4286,0.4195,0.4342,0.4357,0.437,0.4443,0.4464,0.421,0.421,0.421,0.4209,0,0.3748,0.3795,0.3804,0.3849,0.3879,0.3903,0.3951,0.3977,0.4008,0.4042,0.4117,0.416,0.4212,0.4233,0.4246,0.4345,0.4354,0.4356,0.4321,0.4392,0.4464,0.4485,0.4215,0.4214,0.4213,0.4212,0,0,0.3746,0.3794,0.3801,0.382,0.3882,0.3901,0.3948,0.4004,0.4044,0.409,0.4155,0.4228,0.4259,0.4285,0.4318,0.4391,0.4539,0.4407,0.4411,0.4482,0.4764,0.4422,0.4413,0.4582,0.4586,0.4589,0.4781,0,0.3739,0.3766,0.3796,0.3829,0.3849,0.3906,0.3945,0.4002,0.4062,0.4131,0.4206,0.4285,0.4279,0.4329,0.4403,0.4529,0.4597,0.4486,0.4683,0.4688,0.4376,0.4425,0.4082,0.4192,0.4802,0.4805,0.4808,0,0.3727,0.3748,0.3773,0.3822,0.3837,0.3867,0.3947,0.3991,0.4102,0.4153,0.4243,0.4315,0.4446,0.4429,0.465,0.4589,0.4667,0.4743,0.4753,0.4418,0.4382,0.4218,0.4208,0.4844,0.4841,0.4838,0.4836,0,0.3686,0.373,0.3747,0.3767,0.3831,0.3858,0.3902,0.3997,0.4055,0.4187,0.426,0.4401,0.4496,0.4642,0.4751,0.4748,0.4972,0.4996,0.4755,0.4734,0.4462,0.4405,0.5131,0.5131,0.513,0.513,0.5129,0,0.3668,0.3682,0.3729,0.3742,0.3772,0.3828,0.3888,0.3951,0.4073,0.4147,0.4273,0.4355,0.4558,0.4689,0.4797,0.4802,0.5014,0.4747,0.4751,0.4466,0.441,0.4982,0.4962,0.5137,0.5135,0.5134,0.5133,0,0.3627,0.3659,0.3676,0.3732,0.3754,0.3777,0.3879,0.3923,0.4046,0.416,0.4217,0.4383,0.4493,0.4631,0.4851,0.4809,0.4894,0.4834,0.4443,0.4388,0.4598,0.4579,0.4637,0.4626,0.4617,0.461,0.4603,0,0.3608,0.3613,0.3658,0.3668,0.3697,0.3746,0.3781,0.3897,0.3952,0.4152,0.4198,0.4329,0.432,0.4446,0.4407,0.4454,0.4661,0.4155,0.4032,0.4544,0.4545,0.4541,0.4534,0.3759,0.3746,0.3736,0.3727,0,0.3569,0.3585,0.3596,0.3613,0.3639,0.3674,0.3736,0.3769,0.3905,0.3951,0.401,0.4023,0.4046,0.3848,0.3815,0.3824,0.4108,0.3927,0.4645,0.3853,0.3707,0.3709,0.3736,0.3634,0.3644,0.365,0.3655,0.3659,0.353,0.3519,0.3527,0.353,0.3563,0.3564,0.3508,0.3546,0.3538,0.3529,0.3694,0.3561,0.3569,0.3258,0.3189,0.315,0.3423,0.3365,0.3405,0.3454,0.3233,0.3069,0.284,0.2844,0.2848,0.2852,0.2855,0,0.3441,0.344,0.3444,0.3424,0.3374,0.3464,0.3434,0.3295,0.3138,0.319,0.3115,0.28,0.2603,0.2671,0.243,0.239,0.2469,0.2341,0.2464,0.2553,0.2633,0.2378,0.1756,0.1753,0.175,0.1748,0,0,0.3391,0.3331,0.3315,0.3204,0.3213,0.307,0.2989,0.2782,0.2699,0.2486,0.2384,0.2482,0.2563,0.2137,0.2054,0.1882,0.2227,0.1808,0.2681,0.2915,0.2993,0.3196,0.2894,0,0,0,0,0]},{"header":{"parameterUnit":"m.s-1","parameterCategory":2,"la1":30.2991,"la2":30.254,"lo1":-89.0895,"lo2":-89.0444,"dy":0.0017,"dx":0.0017,"nx":28,"ny":28,"refTime":"2024-08-12T21:00:00:Z","depth":"2","parameterNumber":3,"parameterNumberName":"V-component_of_CURRENTS"},"data":[0,0,0,0,0,0,0,0,0,0,0,0,0,0,0,0,0,0,0,0,0,0,0,0,0,0,0,0,0,0,0,0,0,0,0,0,0,0,0,0,0,0,0,0,0,0,0,0,0,0,0,0,0,0,0,0,0,0,0.0447,0.0447,0,0.0404,0.0403,0.0402,0.0332,0.0331,0.033,0.0329,0.0191,0.0188,0.0186,0,0,0,0,0,0,0,0,0,0,0,0,0,0.0406,0.0407,0.0447,0.0447,0.0447,0.0404,0.0403,0.0402,0.0332,0.0331,0.0329,0.0328,0.0192,0.0189,0.0186,0,0,0,0,0,0,0,0,0,0,0,0,0,0.0397,0.0408,0.0447,0.0408,0.0404,0.0404,0.0403,0.0402,0.0332,0.0331,0.0329,0.0328,0.0193,0.0189,0.0185,0.0194,0,0,0.0173,0.0171,0,0,0,0,0,0,0,0,0.0398,0.0399,0.0414,0.0411,0.0406,0.0373,0.0338,0.0328,0.0333,0.0358,0.0329,0.0327,0.0246,0.0237,0.0231,0.0187,0.0181,0.0173,0.017,0.0169,0.0167,0,0,0,0,0,0,0,0.0399,0.04,0.0428,0.0414,0.0409,0.0371,0.0368,0.0336,0.0308,0.0355,0.0351,0.035,0.0242,0.0235,0.0227,0.0179,0.0173,0.0169,0.0167,0.0165,0.0133,0.0134,0,0,0,0,0,0,0.0414,0.0401,0.0429,0.0427,0.04,0.0373,0.037,0.0384,0.031,0.0299,0.0351,0.0346,0.0243,0.0232,0.0222,0.0244,0.0169,0.0165,0.0163,0.0131,0.0133,0.0135,0,0,0,0,0,0,0.0414,0.0418,0.0431,0.0413,0.0412,0.0376,0.0392,0.0384,0.037,0.0309,0.0294,0.0344,0.0241,0.0228,0.0214,0.0237,0.0163,0.0159,0.013,0.0132,0.0134,0.0277,0,0,0,0,0,0,0.0413,0.0418,0.0429,0.0415,0.0414,0.044,0.0394,0.0385,0.0373,0.0366,0.0298,0.0284,0.0239,0.0221,0.0211,0.023,0.0156,0.0128,0.0131,0.0133,0.027,0.0284,0.0296,0,0,0,0,0,0.0412,0.0439,0.0431,0.0433,0.0433,0.0442,0.0438,0.0403,0.0375,0.0381,0.0346,0.0286,0.023,0.022,0.0207,0.0226,0.0126,0.013,0.0133,0.0265,0.0281,0.0295,0,0,0,0,0,0,0.0419,0.0434,0.0424,0.0452,0.0451,0.043,0.0434,0.041,0.0388,0.0377,0.0313,0.0298,0.0296,0.0244,0.0233,0.0225,0.0165,0.0166,0.027,0.0285,0.0297,0.0307,0.0153,0,0,0,0,0,0.0432,0.0458,0.0458,0.0478,0.0484,0.0459,0.0455,0.0437,0.0418,0.0405,0.0356,0.0314,0.0303,0.028,0.0253,0.0249,0.0197,0.025,0.0262,0.0273,0.0273,0.0245,0.0255,0.0146,0.0146,0.0146,0,0,0.0438,0.045,0.0463,0.0482,0.0476,0.0502,0.0452,0.0458,0.0475,0.0394,0.0392,0.0358,0.0314,0.032,0.0311,0.0275,0.0277,0.0278,0.0288,0.0281,0.0249,0.026,0.0269,0.0148,0.0148,0.0148,0,0,0.0471,0.0481,0.0514,0.0526,0.0532,0.0528,0.0534,0.0517,0.0506,0.0512,0.0466,0.0456,0.041,0.0397,0.0385,0.0448,0.0352,0.0423,0.0486,0.046,0.0468,0.0475,0.0423,0.0425,0.0421,0.0422,0.0422,0,0.0467,0.0523,0.0521,0.0558,0.0576,0.0547,0.0586,0.0583,0.0559,0.0564,0.0526,0.0494,0.0456,0.0481,0.0503,0.0478,0.0429,0.0437,0.0477,0.0483,0.0487,0.0432,0.0432,0.0429,0.0428,0.0427,0.0427,0,0.0534,0.0572,0.0595,0.0639,0.0658,0.0687,0.0693,0.0699,0.0679,0.067,0.0678,0.0633,0.0608,0.0602,0.0572,0.0591,0.0534,0.0506,0.0442,0.0507,0.0444,0.0441,0.0439,0.0437,0.0434,0.0433,0,0,0.0534,0.0623,0.0629,0.0667,0.0706,0.0729,0.0774,0.0808,0.0835,0.0804,0.0837,0.0816,0.0768,0.0751,0.0704,0.068,0.0678,0.0606,0.0601,0.056,0.0592,0.0506,0.0493,0.065,0.065,0.065,0.0536,0,0.0579,0.0672,0.0704,0.0785,0.0833,0.0844,0.0891,0.0916,0.0917,0.0939,0.0906,0.091,0.0832,0.0821,0.0791,0.0726,0.0675,0.071,0.0529,0.0523,0.0444,0.0489,0.0485,0.0379,0.0532,0.0531,0.0531,0,0.0635,0.0692,0.0783,0.0873,0.0894,0.0931,0.1001,0.1038,0.1071,0.1073,0.1064,0.1027,0.1013,0.0927,0.0819,0.084,0.0716,0.0644,0.0637,0.0501,0.0431,0.0337,0.0366,0.0524,0.0525,0.0525,0.0526,0,0.065,0.0749,0.0824,0.0855,0.0946,0.098,0.1019,0.1066,0.1117,0.1144,0.1179,0.1136,0.1126,0.0995,0.0848,0.0826,0.0716,0.0666,0.0458,0.045,0.0382,0.0367,0.0552,0.0552,0.0552,0.0553,0.0553,0,0.0698,0.0754,0.0831,0.0874,0.0956,0.1002,0.1082,0.1118,0.1188,0.1271,0.1229,0.1277,0.114,0.1067,0.0895,0.0682,0.0741,0.047,0.0421,0.043,0.0422,0.0494,0.0489,0.0548,0.0549,0.055,0.0551,0,0.0707,0.0763,0.0847,0.0939,0.0967,0.1017,0.1126,0.1196,0.1244,0.1354,0.1372,0.139,0.1274,0.1107,0.0913,0.0744,0.0551,0.044,0.045,0.0403,0.0279,0.0282,0.0193,0.0189,0.0186,0.0183,0.0181,0,0.0725,0.077,0.0875,0.0927,0.0965,0.1045,0.112,0.1206,0.1303,0.1427,0.1504,0.1437,0.1393,0.1082,0.0777,0.0446,0.0451,0.0235,0.0182,0.0284,0.0245,0.0254,0.0262,0.0148,0.0146,0.0144,0.0142,0,0.0752,0.0779,0.0854,0.0954,0.1033,0.1138,0.1254,0.1351,0.1481,0.157,0.1683,0.1649,0.1337,0.1023,0.058,0.0366,0.0295,0.0178,0.0311,0.0236,0.0231,0.0196,0.0208,0.0125,0.0127,0.0128,0.0129,0.0129,0.0764,0.0808,0.0901,0.0996,0.1097,0.1235,0.1341,0.1469,0.1622,0.1749,0.1755,0.1679,0.1367,0.0743,0.0419,0.0084,0.008,-0.0025,-0.0014,-0.0002,0.001,-0.0001,-0.015,-0.015,-0.015,-0.015,-0.015,0,0.0788,0.0845,0.0939,0.1073,0.12,0.1243,0.1446,0.1532,0.1698,0.1758,0.1777,0.1449,0.1088,0.0738,0.0194,-0.0123,-0.0107,-0.0194,-0.0092,-0.0075,-0.006,-0.0046,-0.0223,-0.0224,-0.0224,-0.0225,0,0,0.0807,0.0897,0.0947,0.114,0.1242,0.1396,0.1522,0.1599,0.1667,0.169,0.1646,0.1533,0.1147,0.0758,0.0344,0.006,0.0069,0.0004,0.0084,0.0265,0.0285,0.0043,0.0083,0,0,0,0,0]}],[{"header":{"parameterUnit":"m.s-1","parameterCategory":2,"la1":30.2991,"la2":30.254,"lo1":-89.0895,"lo2":-89.0444,"dy":0.0017,"dx":0.0017,"nx":28,"ny":28,"refTime":"2024-08-12T21:00:00:Z","depth":"4","parameterNumber":2,"parameterNumberName":"U-component_of_CURRENTS"},"data":[0,0,0,0,0,0,0,0,0,0,0,0,0,0,0,0,0,0,0,0,0,0,0,0,0,0,0,0,0,0,0,0,0,0,0,0,0,0,0,0,0,0,0,0,0,0,0,0,0,0,0,0,0,0,0,0,0,0,0.067,0.0671,0,0.0799,0.0801,0.0802,0.0773,0.077,0.0767,0.0764,0.0717,0.0719,0.072,0,0,0,0,0,0,0,0,0,0,0,0,0,0.0657,0.0656,0.067,0.0671,0.0673,0.0798,0.0801,0.0803,0.0773,0.077,0.0766,0.0763,0.0717,0.0718,0.072,0,0,0,0,0,0,0,0,0,0,0,0,0,0.0717,0.0656,0.067,0.0668,0.0669,0.0798,0.0801,0.0804,0.0774,0.077,0.0765,0.0761,0.0716,0.0718,0.0721,0.0825,0,0,0.0728,0.0729,0,0,0,0,0,0,0,0,0.0713,0.0718,0.0668,0.0669,0.067,0.076,0.0779,0.08,0.0775,0.0741,0.0764,0.0759,0.0715,0.0717,0.0762,0.0823,0.0821,0.0728,0.0729,0.073,0.0731,0,0,0,0,0,0,0,0.0709,0.0714,0.0727,0.0669,0.067,0.0749,0.0751,0.0785,0.0753,0.0743,0.074,0.0746,0.0714,0.076,0.076,0.082,0.0728,0.073,0.0731,0.0732,0.097,0.0974,0,0,0,0,0,0,0.0672,0.0709,0.0723,0.073,0.0674,0.0751,0.0754,0.074,0.0756,0.0754,0.075,0.0744,0.0758,0.0757,0.0758,0.0837,0.073,0.0732,0.0734,0.0965,0.0971,0.0976,0,0,0,0,0,0,0.0671,0.0672,0.0718,0.0719,0.0729,0.0754,0.0741,0.0745,0.0808,0.0762,0.0756,0.0807,0.0755,0.0754,0.0772,0.0835,0.0733,0.0736,0.0959,0.0966,0.0973,0.1023,0,0,0,0,0,0,0.067,0.0671,0.0698,0.0716,0.0727,0.0784,0.0745,0.0751,0.0814,0.0809,0.081,0.08,0.0751,0.0769,0.0775,0.0837,0.0737,0.0953,0.0962,0.0971,0.1015,0.1031,0.1045,0,0,0,0,0,0.0669,0.0688,0.0698,0.0702,0.0746,0.0785,0.0801,0.0808,0.0821,0.0852,0.0839,0.0801,0.0833,0.0774,0.078,0.0844,0.0948,0.096,0.097,0.1009,0.1028,0.1045,0,0,0,0,0,0,0.0661,0.0687,0.0698,0.0715,0.075,0.0777,0.083,0.0849,0.0882,0.0881,0.0841,0.0832,0.0878,0.0879,0.0815,0.0952,0.0897,0.091,0.0925,0.0944,0.0958,0.1001,0.0739,0,0,0,0,0,0.0684,0.0724,0.074,0.0761,0.0791,0.0836,0.0875,0.0874,0.0887,0.0903,0.0907,0.0925,0.0941,0.0946,0.0963,0.1035,0.101,0.1096,0.1111,0.1123,0.117,0.1189,0.1207,0.1012,0.1012,0.1012,0,0,0.0689,0.0709,0.0732,0.077,0.0815,0.0847,0.085,0.0904,0.0932,0.0893,0.0961,0.0975,0.0974,0.1026,0.1054,0.1024,0.1155,0.1137,0.1146,0.1188,0.1202,0.122,0.1236,0.102,0.1018,0.1017,0,0,0.0708,0.0741,0.0789,0.0823,0.0883,0.0897,0.092,0.0977,0.1013,0.1081,0.1054,0.1107,0.1159,0.1156,0.1162,0.1294,0.1231,0.1323,0.1426,0.1441,0.1456,0.1468,0.1388,0.1393,0.133,0.1331,0.1331,0,0.0725,0.0763,0.0809,0.0851,0.0891,0.0918,0.0965,0.1004,0.1056,0.1108,0.1102,0.1227,0.1224,0.1276,0.133,0.1324,0.1296,0.1332,0.1453,0.1466,0.1478,0.1393,0.1398,0.1334,0.1334,0.1333,0.1333,0,0.0772,0.0813,0.0845,0.0904,0.0948,0.0996,0.1031,0.1089,0.1154,0.1202,0.1316,0.1337,0.1413,0.1434,0.1426,0.1533,0.1467,0.1454,0.1385,0.1499,0.1403,0.1407,0.134,0.1338,0.1337,0.1336,0,0,0.077,0.087,0.0882,0.0921,0.099,0.1014,0.1081,0.1161,0.1241,0.1314,0.1424,0.1507,0.1569,0.1589,0.1593,0.1636,0.1678,0.1613,0.1612,0.1493,0.1651,0.1595,0.1591,0.1681,0.1684,0.1686,0.1518,0,0.0808,0.0897,0.0939,0.1001,0.1048,0.1094,0.1157,0.1225,0.1329,0.1433,0.1489,0.1607,0.1604,0.1683,0.1717,0.1706,0.1708,0.1721,0.1597,0.1593,0.1497,0.1604,0.1697,0.1521,0.1522,0.1522,0.1523,0,0.0831,0.0896,0.0991,0.1069,0.1102,0.1149,0.1282,0.1352,0.1479,0.1582,0.1696,0.1739,0.182,0.182,0.1818,0.1827,0.1777,0.1743,0.1734,0.1686,0.1551,0.141,0.1529,0.1529,0.1528,0.1528,0.1528,0,0.0782,0.0909,0.0995,0.1025,0.1126,0.1201,0.1281,0.1425,0.1504,0.1716,0.1791,0.1879,0.1953,0.1915,0.1859,0.186,0.1814,0.1772,0.1638,0.1626,0.169,0.168,0.178,0.178,0.178,0.1781,0.1781,0,0.0759,0.0813,0.1003,0.1014,0.1151,0.1243,0.1375,0.1505,0.1655,0.1753,0.189,0.1945,0.201,0.1963,0.1874,0.1763,0.1804,0.169,0.1621,0.1706,0.1701,0.1686,0.1678,0.1774,0.1776,0.1777,0.1778,0,0.0666,0.0769,0.0873,0.1049,0.111,0.1235,0.1389,0.1479,0.1672,0.1798,0.1865,0.201,0.2024,0.1964,0.1919,0.1799,0.1681,0.1618,0.1664,0.1592,0.1457,0.1454,0.1456,0.1454,0.1452,0.145,0.1448,0,0.0623,0.0673,0.0891,0.097,0.1066,0.1228,0.1308,0.1494,0.1606,0.1788,0.1839,0.1934,0.199,0.1822,0.1815,0.1629,0.1609,0.1501,0.1569,0.1513,0.1444,0.1444,0.1443,0.1445,0.1445,0.1444,0.1443,0,0.0541,0.0651,0.0725,0.0921,0.1044,0.1137,0.1301,0.136,0.1568,0.17,0.1802,0.1796,0.1818,0.179,0.1701,0.1547,0.156,0.1479,0.1483,0.1545,0.1499,0.1433,0.1435,0.1436,0.1437,0.1438,0.1438,0,0.0505,0.0579,0.0699,0.0873,0.099,0.1072,0.1142,0.1269,0.1367,0.1633,0.1634,0.1707,0.1828,0.174,0.1602,0.1529,0.1504,0.1416,0.1423,0.1431,0.1508,0.1451,0.1346,0,0,0,0,0,0.0494,0.0543,0.0648,0.079,0.088,0.0972,0.114,0.1215,0.1414,0.147,0.1569,0.1581,0.154,0.1558,0.147,0.1533,0.1462,0.1419,0.1356,0.1397,0.1405,0.1503,0,0,0,0,0,0,0.0487,0.0547,0.0612,0.066,0.0749,0.0827,0.0952,0.1072,0.1141,0.1353,0.1353,0.1472,0.1454,0.1569,0.1435,0.1431,0.1354,0.1462,0.1457,0.1392,0.1399,0.1406,0.1509,0,0,0,0,0]},{"header":{"parameterUnit":"m.s-1","parameterCategory":2,"la1":30.2991,"la2":30.254,"lo1":-89.0895,"lo2":-89.0444,"dy":0.0017,"dx":0.0017,"nx":28,"ny":28,"refTime":"2024-08-12T21:00:00:Z","depth":"4","parameterNumber":3,"parameterNumberName":"V-component_of_CURRENTS"},"data":[0,0,0,0,0,0,0,0,0,0,0,0,0,0,0,0,0,0,0,0,0,0,0,0,0,0,0,0,0,0,0,0,0,0,0,0,0,0,0,0,0,0,0,0,0,0,0,0,0,0,0,0,0,0,0,0,0,0,0.029,0.0289,0,0.0209,0.0208,0.0207,0.0177,0.0177,0.0177,0.0177,0.0053,0.0049,0.0046,0,0,0,0,0,0,0,0,0,0,0,0,0,0.0327,0.0328,0.029,0.0289,0.0287,0.0209,0.0208,0.0207,0.0177,0.0177,0.0177,0.0177,0.0054,0.005,0.0046,0,0,0,0,0,0,0,0,0,0,0,0,0,0.0287,0.0328,0.029,0.0261,0.0258,0.0209,0.0208,0.0207,0.0177,0.0177,0.0177,0.0177,0.0055,0.005,0.0045,0.0012,0,0,0.003,0.0027,0,0,0,0,0,0,0,0,0.029,0.0287,0.0267,0.0263,0.0259,0.0201,0.0175,0.0139,0.0177,0.021,0.0177,0.0177,0.0097,0.0088,0.0076,0.0006,0.0001,0.0029,0.0026,0.0024,0.0022,0,0,0,0,0,0,0,0.0293,0.0289,0.026,0.0266,0.0261,0.0221,0.0217,0.0168,0.0155,0.0207,0.0204,0.0192,0.0095,0.0082,0.0073,-0.0001,0.0029,0.0025,0.0022,0.002,-0.0179,-0.0182,0,0,0,0,0,0,0.0303,0.0292,0.0262,0.0257,0.0273,0.0221,0.0216,0.0222,0.0156,0.0146,0.0192,0.0191,0.009,0.0079,0.0069,0.0001,0.0024,0.0019,0.0016,-0.0177,-0.018,-0.0182,0,0,0,0,0,0,0.0305,0.0302,0.0266,0.027,0.0262,0.0221,0.0227,0.022,0.0209,0.0144,0.0134,0.0188,0.009,0.0076,0.0015,-0.0003,0.0017,0.0012,-0.0175,-0.0178,-0.0181,-0.012,0,0,0,0,0,0,0.0307,0.0304,0.0318,0.0272,0.0262,0.024,0.0226,0.0218,0.02,0.0198,0.0138,0.0126,0.0089,0.0023,0.001,-0.001,0.0008,-0.0172,-0.0176,-0.018,-0.0119,-0.0121,-0.0122,0,0,0,0,0,0.0309,0.0314,0.032,0.0316,0.0282,0.024,0.0232,0.0202,0.02,0.0194,0.0145,0.0128,-0.0014,0.0017,0.0003,-0.0019,-0.017,-0.0175,-0.018,-0.0118,-0.012,-0.0122,0,0,0,0,0,0,0.0329,0.031,0.0315,0.0315,0.0286,0.0234,0.0224,0.0207,0.0166,0.0167,0.011,0.0094,0.0026,-0.0012,0.0024,-0.0096,-0.01,-0.0108,-0.0048,-0.005,-0.0052,-0.0019,0.0004,0,0,0,0,0,0.0345,0.0355,0.032,0.0323,0.031,0.0273,0.0256,0.0239,0.0192,0.0176,0.013,0.0066,-0.0008,-0.0037,-0.0103,-0.0154,-0.0192,-0.0186,-0.0187,-0.0188,-0.0176,-0.0295,-0.0305,-0.0199,-0.0199,-0.0199,0,0,0.0358,0.0345,0.0354,0.0329,0.0307,0.0285,0.0263,0.0241,0.0217,0.0167,0.0122,0.0061,-0.0027,-0.0094,-0.0127,-0.0122,-0.0231,-0.0194,-0.0194,-0.0182,-0.0302,-0.0312,-0.0321,-0.0202,-0.0202,-0.0201,0,0,0.0374,0.0375,0.0387,0.0361,0.0331,0.0302,0.0298,0.0253,0.0229,0.0178,0.0121,0.0053,-0.004,-0.0107,-0.0155,-0.0208,-0.0241,-0.0235,-0.0203,-0.0319,-0.0328,-0.0336,-0.0347,-0.0357,-0.0228,-0.0227,-0.0227,0,0.0388,0.04,0.0379,0.0368,0.035,0.0311,0.0305,0.0264,0.0204,0.0176,0.0168,0.0013,-0.0052,-0.015,-0.0167,-0.0208,-0.0245,-0.0178,-0.0317,-0.0327,-0.0336,-0.0346,-0.0357,-0.0225,-0.0225,-0.0226,-0.0226,0,0.0408,0.0411,0.0406,0.039,0.0367,0.0351,0.0298,0.0267,0.0235,0.0191,0.0102,0.0016,-0.0069,-0.0115,-0.0152,-0.0255,-0.0245,-0.0307,-0.0297,-0.0342,-0.035,-0.0363,-0.0222,-0.0223,-0.0223,-0.0224,0,0,0.0446,0.043,0.0431,0.0427,0.0381,0.0361,0.0315,0.026,0.0234,0.0162,0.0108,-0.0012,-0.0037,-0.0095,-0.0156,-0.0247,-0.0328,-0.0288,-0.0295,-0.0268,-0.051,-0.0432,-0.0438,-0.042,-0.0423,-0.0426,-0.0467,0,0.0468,0.0477,0.0453,0.0442,0.0437,0.038,0.0347,0.029,0.0234,0.0166,0.0062,-0.0004,-0.0038,-0.0062,-0.0166,-0.0309,-0.037,-0.0306,-0.0496,-0.05,-0.0403,-0.0455,-0.0436,-0.0477,-0.048,-0.0482,-0.0484,0,0.0492,0.0495,0.0514,0.048,0.0473,0.0468,0.0414,0.038,0.0271,0.0234,0.0152,0.0061,-0.0059,-0.0096,-0.0312,-0.0269,-0.0367,-0.0468,-0.0474,-0.0432,-0.0449,-0.0443,-0.0508,-0.0506,-0.0504,-0.0502,-0.0501,0,0.053,0.0524,0.0551,0.0538,0.0501,0.0503,0.0493,0.0419,0.0396,0.0298,0.026,0.0102,0.0048,-0.0149,-0.0325,-0.0333,-0.0566,-0.0614,-0.0618,-0.061,-0.0689,-0.0681,-0.0766,-0.0766,-0.0766,-0.0765,-0.0765,0,0.054,0.0546,0.059,0.0583,0.0626,0.0586,0.0595,0.0564,0.0506,0.0475,0.0332,0.0261,0.0024,-0.0147,-0.0325,-0.0486,-0.0561,-0.0604,-0.0638,-0.0655,-0.0644,-0.0695,-0.0686,-0.0767,-0.0767,-0.0766,-0.0766,0,0.0553,0.057,0.0602,0.0624,0.0642,0.069,0.0697,0.0688,0.0649,0.0598,0.0573,0.0387,0.0185,-0.0045,-0.0336,-0.0431,-0.0639,-0.0673,-0.0596,-0.0626,-0.0591,-0.058,-0.0681,-0.0679,-0.0677,-0.0676,-0.0675,0,0.055,0.0578,0.0663,0.0706,0.0727,0.0782,0.0806,0.079,0.079,0.0659,0.0638,0.0447,0.0297,-0.0024,-0.0271,-0.0554,-0.0596,-0.0642,-0.0682,-0.0571,-0.0594,-0.0585,-0.0575,-0.0672,-0.0672,-0.0671,-0.0671,0,0.0538,0.0598,0.0624,0.0751,0.0816,0.0848,0.0897,0.0918,0.0874,0.0829,0.0694,0.0488,0.0284,0.001,-0.017,-0.0404,-0.0601,-0.0626,-0.0631,-0.067,-0.0562,-0.0584,-0.0577,-0.0665,-0.0666,-0.0667,-0.0667,0,0.0543,0.0592,0.0663,0.0763,0.0854,0.0901,0.0913,0.0906,0.0901,0.0811,0.0764,0.0488,0.0361,0.0088,-0.0132,-0.03,-0.0353,-0.0392,-0.0411,-0.042,-0.0345,-0.0169,-0.0178,0,0,0,0,0,0.055,0.0584,0.066,0.0745,0.0835,0.0892,0.0951,0.0948,0.0947,0.0887,0.0836,0.0628,0.0314,0.0148,-0.0005,-0.0119,-0.0391,-0.0301,-0.0446,-0.0634,-0.0641,-0.0593,0,0,0,0,0,0,0.0545,0.0606,0.0641,0.0709,0.078,0.0847,0.0911,0.0895,0.0872,0.0853,0.0686,0.0618,0.0306,0.0396,-0.0009,-0.0065,-0.0167,-0.0449,-0.0451,-0.063,-0.0636,-0.0641,-0.0595,0,0,0,0,0]}]]